Weather History for KACB - October, 2011

Change the Weather History Date:

Tuesday, October 25, 2011

  Actual Average (KTVC) Record (KTVC)
Temperature  
Mean Temperature 36 °F 45 °F  
Max Temperature 41 °F 54 °F 80 °F (2012)
Min Temperature 30 °F 37 °F 23 °F (1949)
Degree Days  
Heating Degree Days 30 20  
Month to date heating degree days 399  
Since 1 July heating degree days 661  
Cooling Degree Days 0 0  
Month to date cooling degree days 0  
Year to date cooling degree days 407  
Moisture  
Dew Point 35 °F    
Average Humidity 94    
Maximum Humidity 100    
Minimum Humidity 87    
Precipitation  
Precipitation 0.00 in 0.10 in 1.58 in (1991)
Month to date precipitation 2.59  
Year to date precipitation 27.23  
Sea Level Pressure  
Sea Level Pressure 30.06 in    
Wind  
Wind Speed 0 mph (NNE)    
Max Wind Speed 7 mph    
Max Gust Speed -    
Visibility 7 miles    
Events Fog , Rain    
T = Trace of Precipitation, MM = Missing Value Source: NWS Daily Summary

Daily Weather History Graph

Daily Weather History Graph

Search for Another Location

Airport or City:

Trip Planner

Search our weather history database for the weather conditions in past years. The results will help you decide how hot, cold, wet, or windy it might be!

Date:

Astronomy

Oct. 25, 2011 Rise Set
Actual Time 8:09 AM EDT 6:39 PM EDT
Civil Twilight 7:39 AM EDT 7:09 PM EDT
Nautical Twilight 7:04 AM EDT 7:44 PM EDT
Astronomical Twilight 6:30 AM EDT 8:18 PM EDT
Moon 6:39 AM EDT (10/25) 5:40 PM EDT (10/25)
Length of Visible Light 11h 30m
Length of Day
10h 30m
Waning Crescent, 2% of the Moon is Illuminated
Oct 25
Waning Crescent
Oct 26
New
Nov 2
First Quarter
Nov 10
Full
Nov 18
Last Quarter

Hourly Weather History & Observations

Time (EDT) Temp. Windchill Dew Point Humidity Pressure Visibility Wind Dir Wind Speed Gust Speed Precip Events Conditions
12:10 AM 32.0 °F - 30.2 °F 93% 30.06 in 10.0 mi Calm Calm - N/A   Mostly Cloudy
12:30 AM 32.0 °F - 30.2 °F 93% 30.06 in 7.0 mi Calm Calm - N/A   Clear
12:50 AM 30.2 °F - 30.2 °F 100% 30.07 in 7.0 mi Calm Calm - N/A   Scattered Clouds
1:10 AM 32.0 °F - 30.2 °F 93% 30.08 in 10.0 mi Calm Calm - N/A   Mostly Cloudy
1:29 AM 32.0 °F - 30.2 °F 93% 30.08 in 0.5 mi Calm Calm - N/A Fog Light Freezing Fog
1:50 AM 32.0 °F - 32.0 °F 100% 30.08 in 0.2 mi Calm Calm - N/A Fog Fog
2:10 AM 32.0 °F - 32.0 °F 100% 30.09 in 0.2 mi Calm Calm - N/A Fog Fog
2:30 AM 32.0 °F - 32.0 °F 100% 30.10 in 0.2 mi Calm Calm - N/A Fog Fog
3:10 AM 32.0 °F - 32.0 °F 100% 30.11 in 2.5 mi Calm Calm - N/A   Overcast
3:30 AM 32.0 °F - 32.0 °F 100% 30.11 in 0.8 mi Calm Calm - N/A   Overcast
3:50 AM 32.0 °F - 32.0 °F 100% 30.12 in 10.0 mi Calm Calm - N/A   Mostly Cloudy
4:10 AM 32.0 °F - 32.0 °F 100% 30.12 in 10.0 mi Calm Calm - N/A   Overcast
4:30 AM 32.0 °F - 32.0 °F 100% 30.10 in 10.0 mi Calm Calm - N/A   Overcast
4:50 AM 32.0 °F - 32.0 °F 100% 30.11 in 2.5 mi Calm Calm - N/A   Mostly Cloudy
5:10 AM 32.0 °F - 32.0 °F 100% 30.10 in 1.8 mi Calm Calm - N/A   Overcast
5:30 AM 32.0 °F - 32.0 °F 100% 30.12 in 10.0 mi Calm Calm - N/A   Overcast
5:50 AM 32.0 °F - 32.0 °F 100% 30.11 in 10.0 mi Calm Calm - N/A   Overcast
6:10 AM 32.0 °F - 32.0 °F 100% 30.12 in 10.0 mi Calm Calm - N/A   Overcast
6:30 AM 32.0 °F - 32.0 °F 100% 30.11 in 10.0 mi Calm Calm - N/A   Overcast
6:50 AM 32.0 °F - 32.0 °F 100% 30.10 in 10.0 mi Calm Calm - N/A   Mostly Cloudy
7:10 AM 32.0 °F - 32.0 °F 100% 30.10 in 7.0 mi Calm Calm - N/A   Scattered Clouds
7:30 AM 32.0 °F - 32.0 °F 100% 30.09 in 7.0 mi Calm Calm - N/A   Overcast
7:49 AM 33.8 °F - 32.0 °F 93% 30.09 in 10.0 mi Calm Calm - N/A   Overcast
8:10 AM 33.8 °F - 33.8 °F 100% 30.11 in 10.0 mi Calm Calm - N/A   Overcast
8:30 AM 35.6 °F - 33.8 °F 93% 30.12 in 7.0 mi Calm Calm - N/A Rain Light Rain
8:50 AM 35.6 °F - 33.8 °F 93% 30.13 in 5.0 mi Calm Calm - N/A Rain Light Rain
9:10 AM 35.6 °F - 35.6 °F 100% 30.13 in 5.0 mi Calm Calm - N/A Rain Light Rain
9:29 AM 35.6 °F - 35.6 °F 100% 30.13 in 7.0 mi Calm Calm - N/A Rain Rain
9:50 AM 35.6 °F - 35.6 °F 100% 30.13 in 7.0 mi Calm Calm - N/A Rain Light Rain
10:10 AM 37.4 °F - 35.6 °F 93% 30.12 in 5.0 mi Calm Calm - N/A Rain Light Rain
10:29 AM 37.4 °F - 35.6 °F 93% 30.12 in 5.0 mi Calm Calm - N/A Rain Light Rain
10:50 AM 37.4 °F - 35.6 °F 93% 30.10 in 7.0 mi Calm Calm - N/A Rain Light Rain
11:10 AM 39.2 °F - 37.4 °F 93% 30.09 in 10.0 mi Calm Calm - N/A Rain Light Rain
11:30 AM 41.0 °F - 37.4 °F 87% 30.08 in 10.0 mi Calm Calm - N/A Rain Light Rain
11:50 AM 41.0 °F - 37.4 °F 87% 30.08 in 10.0 mi Calm Calm - N/A Rain Light Rain
12:30 PM 41.0 °F - 37.4 °F 87% 30.07 in 4.0 mi Calm Calm - N/A Rain Rain
12:50 PM 41.0 °F - 37.4 °F 87% 30.06 in 5.0 mi Calm Calm - N/A Rain Light Rain
1:10 PM 41.0 °F - 37.4 °F 87% 30.05 in 7.0 mi Calm Calm - N/A Rain Light Rain
1:30 PM 41.0 °F 38.0 °F 37.4 °F 87% 30.03 in 10.0 mi ENE 4.6 mph - N/A Rain Light Rain
1:50 PM 41.0 °F 38.0 °F 37.4 °F 87% 30.01 in 10.0 mi NNE 4.6 mph - N/A Rain Light Rain
2:10 PM 41.0 °F 39.0 °F 37.4 °F 87% 30.01 in 10.0 mi NNE 3.5 mph - N/A Rain Light Rain
2:30 PM 41.0 °F 36.4 °F 37.4 °F 87% 29.98 in 4.0 mi NNE 6.9 mph - N/A Rain Rain
3:09 PM 41.0 °F - 37.4 °F 87% 29.99 in 2.0 mi Calm Calm - N/A Rain Light Rain
3:30 PM 41.0 °F 39.0 °F 37.4 °F 87% 29.99 in 1.5 mi NNE 3.5 mph - N/A   Overcast
3:50 PM 41.0 °F 39.0 °F 37.4 °F 87% 29.99 in 1.8 mi North 3.5 mph - N/A Rain Rain
4:30 PM 41.0 °F - 37.4 °F 87% 29.97 in 10.0 mi Calm Calm - N/A   Light Drizzle
4:50 PM 41.0 °F 39.0 °F 39.2 °F 93% 29.97 in 10.0 mi NE 3.5 mph - N/A Rain Light Rain
5:10 PM 41.0 °F 39.0 °F 39.2 °F 93% 29.96 in 7.0 mi NE 3.5 mph - N/A Rain Light Rain
5:30 PM 41.0 °F 38.0 °F 39.2 °F 93% 29.93 in 10.0 mi NNE 4.6 mph - N/A Rain Light Rain
5:49 PM 41.0 °F - 39.2 °F 93% 29.93 in 10.0 mi Calm Calm - N/A   Overcast
6:10 PM 41.0 °F - 39.2 °F 93% 29.94 in 10.0 mi Calm Calm - N/A   Overcast
6:30 PM 41.0 °F - 39.2 °F 93% 29.95 in 10.0 mi Calm Calm - N/A   Overcast
7:30 PM 41.0 °F 38.0 °F 39.2 °F 93% 29.94 in 10.0 mi NNE 4.6 mph - N/A   Overcast
7:50 PM 41.0 °F - 39.2 °F 93% 29.95 in 10.0 mi Calm Calm - N/A Rain Light Rain
8:10 PM 41.0 °F 39.0 °F 39.2 °F 93% 29.96 in 7.0 mi NNW 3.5 mph - N/A Rain Rain
8:29 PM 41.0 °F 39.0 °F 39.2 °F 93% 29.95 in 5.0 mi NNE 3.5 mph - N/A Rain Rain
9:10 PM 41.0 °F - 41.0 °F 100% 29.95 in 7.0 mi Calm Calm - N/A Rain Light Rain
9:30 PM 41.0 °F 38.0 °F 41.0 °F 100% 29.95 in 7.0 mi North 4.6 mph - N/A Rain Light Rain
9:50 PM 41.0 °F 39.0 °F 41.0 °F 100% 29.95 in 7.0 mi North 3.5 mph - N/A Rain Light Rain
10:10 PM 41.0 °F 38.0 °F 41.0 °F 100% 29.95 in 10.0 mi North 4.6 mph - N/A Rain Rain
10:30 PM 41.0 °F 35.8 °F 39.2 °F 93% 29.94 in 10.0 mi NNE 8.1 mph - N/A Rain Rain
10:50 PM 41.0 °F 35.2 °F 39.2 °F 93% 29.94 in 10.0 mi NNE 9.2 mph - N/A   Overcast
11:09 PM 41.0 °F 35.8 °F 37.4 °F 87% 29.94 in 7.0 mi NNE 8.1 mph - N/A   Overcast
11:30 PM 41.0 °F 36.4 °F 37.4 °F 87% 29.93 in 10.0 mi NNE 6.9 mph - N/A Rain Light Rain
11:50 PM 41.0 °F 36.4 °F 37.4 °F 87% 29.94 in 10.0 mi NNE 6.9 mph - N/A Rain Rain